Date,TemperatureHighF,TemperatureAvgF,TemperatureLowF,DewpointHighF,DewpointAvgF,DewpointLowF,HumidityHigh,HumidityAvg,HumidityLow,PressureMaxIn,PressureMinIn,WindSpeedMaxMPH,WindSpeedAvgMPH,GustSpeedMaxMPH,PrecipitationSumIn
2013-2-2,73.6,64.4,59.7,53.4,49.8,46.3,68,59,45,30.19,30.08,8,1,0,0.36
2013-2-3,75.9,58.3,44.4,55.7,47.7,41.7,90,69,46,30.14,29.96,7,2,0,0.00
2013-2-4,67.6,52.1,39.2,55.0,46.4,37.3,94,82,63,30.11,29.98,7,2,0,0.00
2013-2-5,57.7,50.7,42.6,51.6,47.6,40.7,95,89,79,30.10,29.97,6,1,0,0.00
2013-2-6,65.8,52.8,41.2,55.9,47.7,39.1,95,84,62,30.12,30.01,11,2,0,0.00
2013-2-7,62.1,48.6,37.8,53.7,44.0,36.3,96,85,71,30.15,29.94,7,2,0,0.00
2013-2-8,56.5,43.4,34.7,46.4,38.6,33.2,95,84,65,29.99,29.83,10,2,0,0.01
2013-2-9,59.9,44.4,31.8,46.4,37.1,30.5,95,78,51,30.10,29.95,9,2,0,0.01
2013-2-10,58.6,44.4,34.0,48.3,38.6,31.4,93,81,62,30.11,29.99,7,2,0,0.00
2013-2-11,67.3,47.8,33.1,47.8,37.7,31.6,95,71,39,30.26,30.08,8,2,0,0.00
2013-2-12,64.4,47.3,31.1,42.7,33.7,27.3,86,62,41,30.36,30.22,9,2,0,0.00
2013-2-13,66.2,49.0,34.3,48.2,38.2,28.4,84,68,47,30.28,30.11,9,2,0,0.00
2013-2-14,82.2,52.4,34.9,59.2,41.5,32.0,89,69,38,30.21,30.04,11,2,0,0.00
2013-2-15,83.3,67.9,49.6,45.2,39.4,34.1,62,37,24,30.20,30.08,9,3,0,0.00
2013-2-16,84.0,67.0,42.4,41.0,33.1,26.4,56,30,21,30.14,29.95,8,2,0,0.00
2013-2-17,67.3,52.5,37.8,47.6,38.7,25.7,88,61,40,30.01,29.87,9,3,0,0.00
2013-2-18,65.1,53.2,46.0,51.3,46.5,42.9,92,79,60,30.05,29.90,9,2,0,0.00
2013-2-19,57.2,48.9,40.6,47.8,43.6,37.6,92,82,65,29.97,29.72,10,2,0,0.18
2013-2-20,61.3,44.7,31.5,44.0,35.9,28.6,91,73,50,30.01,29.72,11,2,0,0.01
2013-2-21,63.3,45.9,31.8,45.4,35.9,27.1,86,69,48,30.11,29.97,11,2,0,0.00
2013-2-22,68.0,48.8,34.7,44.5,36.9,29.8,83,66,40,30.20,30.10,10,2,0,0.00
2013-2-23,63.9,49.6,34.7,49.5,40.3,30.4,87,71,52,30.17,29.90,9,3,0,0.00
2013-2-24,69.8,55.2,39.0,34.3,28.9,19.8,63,39,23,30.20,30.03,14,2,0,0.00
2013-2-25,67.5,50.2,34.3,36.0,29.7,19.7,76,48,28,30.24,30.04,9,2,0,0.00
2013-2-26,78.3,54.7,31.8,49.4,37.8,26.9,82,56,30,30.14,29.99,8,2,0,0.00
2013-2-27,78.6,61.3,45.3,36.6,28.5,20.9,49,30,20,30.30,30.14,7,2,0,0.00
2013-2-28,82.6,59.8,42.1,40.9,32.7,22.3,58,38,20,30.33,30.21,8,2,0,0.00